User: anonymous   Login
Location: Miami, Florida
(25.6830°N, 80.1700°W)
Time: 18:46:31
(UTC-04:00)
Language:

Tiangong 2 - Orbit

View from above orbital plane
View from above orbital plane
View from above satellite
View from above satellite

Ground track
Ground track

The orbit data is extracted from the following two-line orbital elements,

1 41765U 16057A   19140.43758856  .00003377  00000-0  42664-4 0  9999
2 41765  42.7817 132.3798 0006548  66.3991  63.5549 15.61556735152705
Epoch (UTC): 20 May 2019 10:30:07
Eccentricity: 0.0006548
inclination: 42.7817°
perigee height: 379 km
apogee height: 387 km
right ascension of ascending node: 132.3798°
argument of perigee: 66.3991°
revolutions per day: 15.61556735
mean anomaly at epoch: 63.5549°
orbit number at epoch: 15270

The dashed part of the orbit path shows where the satellite is in the earth's shadow,  

DLR